Weather History for Dodge City, KS

Change the Weather History Date:

Wednesday, November 30, 2011

  Actual Average Record
Temperature  
Mean Temperature 44 °F -  
Max Temperature 59 °F 47 °F 74 °F (1970)
Min Temperature 28 °F 26 °F 5 °F (1877)
Degree Days  
Heating Degree Days 22    
Moisture  
Dew Point 27 °F    
Average Humidity 57    
Maximum Humidity 76    
Minimum Humidity 33    
Precipitation  
Precipitation 0.00 in - - ()
Sea Level Pressure  
Sea Level Pressure 29.94 in    
Wind  
Wind Speed 15 mph (South)    
Max Wind Speed 28 mph    
Max Gust Speed 38 mph    
Visibility 10 miles    
Events      
Averages and records for this station are not official NWS values.
T = Trace of Precipitation, MM = Missing Value Source: NWS Daily Summary

Daily Weather History Graph

Daily Weather History Graph

Search for Another Location

Airport:

Trip Planner

Search our weather history database for the weather conditions in past years. The results will help you decide how hot, cold, wet, or windy it might be!

Date:

Astronomy

Nov. 30, 2011 Rise Set
Actual Time 7:35 AM CST 5:21 PM CST
Civil Twilight 7:06 AM CST 5:50 PM CST
Nautical Twilight 6:33 AM CST 6:22 PM CST
Astronomical Twilight 6:02 AM CST 6:54 PM CST
Moon 11:57 AM CST (11/30) 11:16 PM CST (11/30)
Length of Visible Light 10h 43m
Length of Day
9h 46m
Waxing Crescent, 34% of the Moon is Illuminated
Nov 30
Waxing Crescent
Dec 2
First Quarter
Dec 10
Full
Dec 17
Last Quarter
Dec 24
New

Hourly Weather History & Observations

Time (CST) Temp. Windchill Dew Point Humidity Pressure Visibility Wind Dir Wind Speed Gust Speed Precip Events Conditions
12:52 AM 30.0 °F 21.7 °F 21.0 °F 69% 30.21 in 10.0 mi South 9.2 mph - N/A   Clear
1:52 AM 33.1 °F 25.5 °F 21.0 °F 61% 30.19 in 10.0 mi SSW 9.2 mph - N/A   Clear
2:52 AM 28.9 °F 18.6 °F 21.9 °F 75% 30.15 in 10.0 mi South 12.7 mph - N/A   Clear
3:52 AM 30.9 °F 21.2 °F 21.9 °F 69% 30.14 in 10.0 mi SSW 12.7 mph - N/A   Clear
4:52 AM 30.0 °F 21.1 °F 21.0 °F 69% 30.10 in 10.0 mi South 10.4 mph - N/A   Clear
5:52 AM 30.9 °F 21.2 °F 21.9 °F 69% 30.09 in 10.0 mi South 12.7 mph - N/A   Clear
6:52 AM 32.0 °F 21.2 °F 23.0 °F 69% 30.06 in 10.0 mi South 16.1 mph - N/A   Clear
7:52 AM 30.9 °F 20.7 °F 24.1 °F 76% 30.07 in 10.0 mi South 13.8 mph - N/A   Clear
8:52 AM 34.0 °F 23.4 °F 26.1 °F 73% 30.05 in 10.0 mi South 17.3 mph - N/A   Clear
9:52 AM 39.9 °F 30.5 °F 28.0 °F 63% 30.03 in 10.0 mi SSW 19.6 mph - N/A   Clear
10:52 AM 46.0 °F 38.3 °F 30.0 °F 54% 30.00 in 10.0 mi South 20.7 mph - N/A   Clear
11:52 AM 50.0 °F - 30.0 °F 46% 29.94 in 10.0 mi South 20.7 mph 27.6 mph N/A   Clear
12:52 PM 55.0 °F - 30.9 °F 40% 29.87 in 10.0 mi South 20.7 mph 32.2 mph N/A   Clear
1:52 PM 57.0 °F - 30.9 °F 37% 29.81 in 10.0 mi South 25.3 mph 33.4 mph N/A   Clear
2:52 PM 59.0 °F - 30.0 °F 33% 29.78 in 10.0 mi South 25.3 mph 35.7 mph N/A   Clear
3:52 PM 57.9 °F - 30.0 °F 35% 29.76 in 10.0 mi South 27.6 mph 38.0 mph N/A   Clear
4:52 PM 53.1 °F - 30.0 °F 41% 29.78 in 10.0 mi South 25.3 mph 29.9 mph N/A   Clear
5:52 PM 50.0 °F - 30.9 °F 48% 29.78 in 10.0 mi South 20.7 mph 27.6 mph N/A   Clear
6:52 PM 46.9 °F - 30.0 °F 52% 29.79 in 10.0 mi SSE 21.9 mph - N/A   Clear
7:52 PM 45.0 °F 36.4 °F 28.9 °F 53% 29.80 in 10.0 mi South 23.0 mph - N/A   Clear
8:52 PM 42.1 °F 33.1 °F 28.9 °F 60% 29.80 in 10.0 mi South 20.7 mph - N/A   Clear
9:52 PM 41.0 °F 32.8 °F 28.0 °F 60% 29.80 in 10.0 mi SSE 16.1 mph - N/A   Clear
10:52 PM 39.9 °F 30.2 °F 27.0 °F 60% 29.80 in 10.0 mi South 20.7 mph - N/A   Clear
11:52 PM 37.9 °F 29.6 °F 27.0 °F 65% 29.81 in 10.0 mi South 13.8 mph - N/A   Clear